Location: DARK SKY Beskydy - Park tmavé oblohy, www.darkskybeskydy.cz
(49.4926°N, 18.5016°E)
Time: 02:18:25
(UTC+02:00)

A-11 Canister half - Pass Details

Date: 28 February 2024
Orbit: 1513 x 1686 km, 47.2° (Epoch: 24 April)

Event Time Altitude Azimuth Distance (km) Brightness Sun altitude
Rises 00:17:03 0° 214° (SW) 4,923 - -48.6°
Reaches altitude 10° 00:20:27 10° 207° (SSW) 3,942 - -48.5°
Maximum altitude 00:29:39 41° 142° (SE) 2,285 - -48.2°
Exits shadow 00:36:14 19° 86° (E) 3,246 10.7 -48.0°
Drops below altitude 10° 00:38:44 10° 78° (ENE) 3,908 11.3 -47.9°
Sets 00:42:04 0° 71° (ENE) 4,878 12.0 -47.8°
